TimePDT,TemperatureF,Dew PointF,Humidity,Sea Level PressureIn,VisibilityMPH,Wind Direction,Wind SpeedMPH,Gust SpeedMPH,PrecipitationIn,Events,Conditions,WindDirDegrees,DateUTC
12:53 AM,48.0,35.1,61,29.84,-9999.0,South,6.9,-,N/A,,Unknown,190,2012-10-11 07:53:00
1:53 AM,48.0,36.0,63,29.84,-9999.0,SW,8.1,-,N/A,,Unknown,230,2012-10-11 08:53:00
2:53 AM,45.0,36.0,71,29.84,-9999.0,South,3.5,-,N/A,,Unknown,180,2012-10-11 09:53:00
3:53 AM,39.9,33.1,77,29.86,-9999.0,Calm,Calm,-,N/A,,Unknown,0,2012-10-11 10:53:00
4:53 AM,37.9,30.9,76,29.89,-9999.0,Calm,Calm,-,N/A,,Unknown,0,2012-10-11 11:53:00
5:53 AM,37.9,30.9,76,29.90,-9999.0,Calm,Calm,-,N/A,,Unknown,0,2012-10-11 12:53:00
6:53 AM,39.0,32.0,76,29.90,-9999.0,Calm,Calm,-,N/A,,Unknown,0,2012-10-11 13:53:00
7:53 AM,43.0,35.1,74,29.89,-9999.0,SSW,3.5,-,N/A,,Unknown,200,2012-10-11 14:53:00
8:53 AM,52.0,37.0,57,29.87,-9999.0,NNE,3.5,-,N/A,,Unknown,30,2012-10-11 15:53:00
9:53 AM,57.0,39.0,51,29.85,-9999.0,NE,5.8,-,N/A,,Unknown,40,2012-10-11 16:53:00
10:53 AM,61.0,37.9,42,29.82,-9999.0,Variable,3.5,-,N/A,,Unknown,0,2012-10-11 17:53:00
11:53 AM,66.0,37.9,36,29.81,-9999.0,SSE,12.7,-,N/A,,Unknown,160,2012-10-11 18:53:00
12:53 PM,64.0,37.0,37,29.80,-9999.0,South,8.1,23.0,N/A,,Unknown,170,2012-10-11 19:53:00
1:53 PM,64.9,36.0,34,29.77,-9999.0,SSE,12.7,-,N/A,,Unknown,160,2012-10-11 20:53:00
2:53 PM,51.1,46.0,83,29.88,-9999.0,SSW,21.9,32.2,N/A,,Unknown,200,2012-10-11 21:53:00
3:53 PM,55.0,43.0,64,29.88,-9999.0,SSW,10.4,-,0.02,,Unknown,200,2012-10-11 22:53:00
4:53 PM,55.0,42.1,62,29.86,-9999.0,WSW,5.8,-,N/A,,Unknown,240,2012-10-11 23:53:00
5:53 PM,54.0,41.0,62,29.88,-9999.0,ESE,6.9,-,N/A,,Unknown,110,2012-10-12 00:53:00
6:53 PM,53.1,42.1,66,29.87,-9999.0,SSE,9.2,-,N/A,,Unknown,150,2012-10-12 01:53:00
7:53 PM,51.1,42.1,71,29.87,-9999.0,SSW,3.5,-,N/A,,Unknown,210,2012-10-12 02:53:00
8:53 PM,50.0,44.1,80,29.86,-9999.0,SSE,9.2,-,0.01,,Unknown,160,2012-10-12 03:53:00
9:53 PM,48.9,42.1,77,29.85,-9999.0,South,9.2,-,N/A,,Unknown,190,2012-10-12 04:53:00
10:53 PM,48.0,41.0,77,29.86,-9999.0,South,10.4,-,N/A,,Unknown,190,2012-10-12 05:53:00
11:53 PM,46.0,41.0,83,29.84,-9999.0,Calm,Calm,-,0.03,,Unknown,0,2012-10-12 06:53:00